TimeEST,TemperatureF,Dew PointF,Humidity,Sea Level PressureIn,VisibilityMPH,Wind Direction,Wind SpeedMPH,Gust SpeedMPH,PrecipitationIn,Events,Conditions,WindDirDegrees,DateUTC
12:15 AM,44.6,33.8,66,30.18,10.0,NW,11.5,-,N/A,,Unknown,310,2013-01-18 05:15:00
12:35 AM,42.8,33.8,70,30.18,10.0,NW,11.5,-,N/A,,Unknown,310,2013-01-18 05:35:00
12:55 AM,42.8,33.8,70,30.18,10.0,NW,10.4,-,N/A,,Unknown,310,2013-01-18 05:55:00
1:35 AM,41.0,32.0,70,30.20,10.0,NW,6.9,-,N/A,,Unknown,310,2013-01-18 06:35:00
1:55 AM,41.0,32.0,70,30.20,10.0,NW,6.9,-,N/A,,Unknown,310,2013-01-18 06:55:00
2:15 AM,39.2,32.0,75,30.21,10.0,NW,5.8,-,N/A,,Unknown,320,2013-01-18 07:15:00
2:35 AM,39.2,32.0,75,30.21,10.0,NNW,3.5,-,N/A,,Unknown,330,2013-01-18 07:35:00
2:55 AM,39.2,32.0,75,30.21,10.0,NW,4.6,-,N/A,,Unknown,320,2013-01-18 07:55:00
3:15 AM,39.2,32.0,75,30.22,10.0,Calm,Calm,-,N/A,,Unknown,0,2013-01-18 08:15:00
3:35 AM,39.2,32.0,75,30.22,10.0,Calm,Calm,-,N/A,,Unknown,0,2013-01-18 08:35:00
3:55 AM,39.2,32.0,75,30.23,10.0,Calm,Calm,-,N/A,,Unknown,0,2013-01-18 08:55:00
4:15 AM,39.2,32.0,75,30.22,10.0,NNW,4.6,-,N/A,,Unknown,330,2013-01-18 09:15:00
4:35 AM,39.2,32.0,75,30.23,10.0,Calm,Calm,-,N/A,,Unknown,0,2013-01-18 09:35:00
4:55 AM,39.2,32.0,75,30.23,10.0,Calm,Calm,-,N/A,,Unknown,0,2013-01-18 09:55:00
5:15 AM,39.2,32.0,75,30.24,10.0,Calm,Calm,-,N/A,,Unknown,0,2013-01-18 10:15:00
5:35 AM,39.2,33.8,81,30.25,10.0,Calm,Calm,-,N/A,,Unknown,0,2013-01-18 10:35:00
5:55 AM,39.2,33.8,81,30.25,10.0,Calm,Calm,-,N/A,,Unknown,0,2013-01-18 10:55:00
6:15 AM,39.2,33.8,81,30.27,10.0,Calm,Calm,-,N/A,,Unknown,0,2013-01-18 11:15:00
6:55 AM,41.0,33.8,76,30.27,10.0,Calm,Calm,-,N/A,,Unknown,0,2013-01-18 11:55:00
7:15 AM,41.0,33.8,76,30.28,10.0,Calm,Calm,-,N/A,,Unknown,0,2013-01-18 12:15:00
7:35 AM,41.0,33.8,76,30.28,10.0,Calm,Calm,-,N/A,,Unknown,0,2013-01-18 12:35:00
7:55 AM,42.8,35.6,76,30.28,10.0,Calm,Calm,-,N/A,,Unknown,0,2013-01-18 12:55:00
8:15 AM,42.8,35.6,76,30.29,10.0,NNW,4.6,-,N/A,,Unknown,340,2013-01-18 13:15:00
8:35 AM,44.6,35.6,71,30.30,10.0,NNW,6.9,-,N/A,,Unknown,340,2013-01-18 13:35:00
8:55 AM,46.4,37.4,71,30.30,10.0,North,9.2,-,N/A,,Unknown,360,2013-01-18 13:55:00
9:15 AM,46.4,37.4,71,30.31,10.0,North,8.1,16.1,N/A,,Unknown,360,2013-01-18 14:15:00
9:35 AM,48.2,39.2,71,30.32,10.0,North,6.9,-,N/A,,Unknown,10,2013-01-18 14:35:00
9:55 AM,51.8,41.0,67,30.32,10.0,North,11.5,19.6,N/A,,Unknown,10,2013-01-18 14:55:00
10:15 AM,51.8,42.8,71,30.32,10.0,North,9.2,-,N/A,,Unknown,360,2013-01-18 15:15:00
10:55 AM,57.2,44.6,63,30.31,9.0,North,9.2,18.4,N/A,,Unknown,10,2013-01-18 15:55:00
11:15 AM,57.2,46.4,67,30.31,9.0,NNE,16.1,21.9,N/A,,Unknown,20,2013-01-18 16:15:00
11:35 AM,60.8,46.4,59,30.29,9.0,North,13.8,21.9,N/A,,Unknown,10,2013-01-18 16:35:00
12:15 PM,60.8,48.2,63,30.28,10.0,NNE,12.7,-,N/A,,Unknown,30,2013-01-18 17:15:00
12:35 PM,62.6,48.2,59,30.27,9.0,NNE,11.5,24.2,N/A,,Unknown,30,2013-01-18 17:35:00
12:55 PM,62.6,48.2,59,30.26,9.0,NNE,17.3,23.0,N/A,,Unknown,20,2013-01-18 17:55:00
1:55 PM,62.6,48.2,59,30.26,10.0,NE,18.4,25.3,N/A,,Unknown,40,2013-01-18 18:55:00
2:15 PM,62.6,48.2,59,30.26,8.0,NNE,13.8,25.3,N/A,,Unknown,20,2013-01-18 19:15:00
2:35 PM,64.4,48.2,56,30.26,9.0,NNE,20.7,27.6,N/A,,Unknown,20,2013-01-18 19:35:00
2:55 PM,62.6,48.2,59,30.26,8.0,NNE,16.1,21.9,N/A,,Unknown,20,2013-01-18 19:55:00
3:15 PM,62.6,48.2,59,30.27,8.0,NNE,19.6,28.8,N/A,,Unknown,20,2013-01-18 20:15:00
3:55 PM,62.6,48.2,59,30.27,8.0,NNE,16.1,24.2,N/A,,Unknown,20,2013-01-18 20:55:00
4:15 PM,62.6,48.2,59,30.28,10.0,NNE,12.7,24.2,N/A,,Unknown,30,2013-01-18 21:15:00
4:35 PM,60.8,48.2,63,30.29,9.0,NE,15.0,25.3,N/A,,Unknown,40,2013-01-18 21:35:00
4:55 PM,60.8,48.2,63,30.29,8.0,NNE,17.3,23.0,N/A,,Unknown,20,2013-01-18 21:55:00
5:15 PM,59.0,48.2,67,30.30,8.0,NNE,11.5,25.3,N/A,,Unknown,20,2013-01-18 22:15:00
5:35 PM,59.0,48.2,67,30.31,8.0,NNE,17.3,23.0,N/A,,Unknown,30,2013-01-18 22:35:00
5:55 PM,57.2,48.2,72,30.32,9.0,NNE,11.5,21.9,N/A,,Unknown,30,2013-01-18 22:55:00
6:15 PM,57.2,46.4,67,30.32,9.0,NNE,13.8,26.5,N/A,,Unknown,20,2013-01-18 23:15:00
6:55 PM,55.4,46.4,72,30.33,10.0,North,10.4,18.4,N/A,,Unknown,10,2013-01-18 23:55:00
7:15 PM,55.4,46.4,72,30.33,10.0,North,11.5,20.7,N/A,,Unknown,10,2013-01-19 00:15:00
7:35 PM,55.4,46.4,72,30.33,10.0,North,10.4,17.3,N/A,,Unknown,360,2013-01-19 00:35:00
7:55 PM,53.6,46.4,77,30.33,10.0,North,10.4,16.1,N/A,,Unknown,360,2013-01-19 00:55:00
8:15 PM,53.6,44.6,72,30.34,10.0,North,9.2,18.4,N/A,,Unknown,10,2013-01-19 01:15:00
8:35 PM,53.6,44.6,72,30.34,10.0,North,10.4,20.7,N/A,,Unknown,360,2013-01-19 01:35:00
8:55 PM,53.6,44.6,72,30.33,10.0,North,10.4,17.3,N/A,,Unknown,360,2013-01-19 01:55:00
9:15 PM,53.6,44.6,72,30.34,10.0,North,10.4,-,N/A,,Unknown,350,2013-01-19 02:15:00
9:35 PM,51.8,44.6,76,30.33,10.0,North,10.4,16.1,N/A,,Unknown,360,2013-01-19 02:35:00
9:55 PM,51.8,44.6,76,30.33,10.0,North,9.2,16.1,N/A,,Unknown,360,2013-01-19 02:55:00
10:15 PM,51.8,44.6,76,30.32,10.0,North,9.2,-,N/A,,Unknown,360,2013-01-19 03:15:00
10:35 PM,51.8,44.6,76,30.33,10.0,North,9.2,-,N/A,,Unknown,360,2013-01-19 03:35:00
10:55 PM,51.8,44.6,76,30.32,10.0,North,8.1,-,N/A,,Unknown,360,2013-01-19 03:55:00
11:55 PM,51.8,44.6,76,30.30,10.0,North,8.1,-,N/A,,Unknown,360,2013-01-19 04:55:00